This demonstration page uses our WeatherBlox Daily Observations layout. Learn more.

Left ArrowRight Arrow

39.12711, -84.51439

Hourly Observations for May 17, 2016

Temp ( °F °C ) Dew Point ( °F °C ) Humidity (%) Winds ( mph kmh ) Pressure ( in mb ) Visibility ( mi km ) Precip ( " mm )
12:53 am 00:53 Cloudy 52 11.1 44 6.7 75 75 SSE 3 6 30.20 1023 10 16 0.00 0.00
1:53 am 01:53 Cloudy with Light Rain 50 10 47 8.3 89 89 S 5 7 30.19 1023 10 16 0.00 0.03
2:53 am 02:53 Cloudy 51 10.6 47 8.3 86 86 Calm 30.19 1022 10 16 0.00 0.03
3:53 am 03:53 Cloudy 49 9.4 49 9.4 100 100 Calm 30.20 1023 10 16 0.01 0.25
4:53 am 04:53 Cloudy 49 9.4 49 9.4 100 100 Calm 30.20 1023 10 16 0.00 0.03
5:53 am 05:53 Cloudy 50 10 49 9.4 96 96 Calm 30.20 1023 10 16 0.00 0.03
6:53 am 06:53 Cloudy 49 9.4 49 9.4 100 100 Calm 30.22 1023 10 16 0.00 0.03
7:53 am 07:53 Cloudy 50 10 49 9.4 96 96 Calm 30.24 1024 10 16 0.00 0.00
8:53 am 08:53 Cloudy with Light Rain 51 10.6 49 9.4 92 92 Calm 30.24 1024 10 16 0.02 0.51
9:53 am 09:53 Cloudy 53 11.7 49 9.4 86 86 NE 5 7 30.24 1024 10 16 0.00 0.03
10:53 am 10:53 Cloudy 53 11.7 48 8.9 83 83 NE 5 7 30.24 1024 10 16 0.00 0.00
11:53 am 11:53 Cloudy 53 11.7 47 8.3 80 80 ENE 7 11 30.24 1024 10 16 0.00 0.00
12:53 pm 12:53 Cloudy 54 12.2 48 8.9 80 80 NE 7 11 30.23 1024 10 16 0.00 0.03
1:53 pm 13:53 Cloudy 53 11.7 47 8.3 80 80 E 5 7 30.22 1023 10 16 0.00 0.00
2:48 pm 14:48 Cloudy with Light Rain 54 12 46 8 77 77 ENE 9 15 30.21 1023 10 16 0.00 0.00
2:53 pm 14:53 Cloudy with Light Rain 54 12.2 47 8.3 77 77 NE 8 13 30.20 1023 10 16 0.00 0.03
3:53 pm 15:53 Cloudy 54 12.2 48 8.9 80 80 ENE 6 9 30.18 1022 10 16 0.00 0.03
4:53 pm 16:53 Cloudy 55 12.8 46 7.8 72 72 ENE 10 17 30.15 1021 10 16 0.00 0.00
5:53 pm 17:53 Cloudy 54 12.2 46 7.8 75 75 NE 9 15 30.14 1021 10 16 0.00 0.00
6:53 pm 18:53 Cloudy with Light Rain 53 11.7 47 8.3 80 80 NE 3 6 30.14 1021 8 13 0.01 0.25
7:53 pm 19:53 Cloudy with Light Rain 51 10.6 50 10 96 96 E 3 6 30.14 1021 8 13 0.05 1.27
8:53 pm 20:53 Cloudy with Light Rain 51 10.6 50 10 96 96 Calm 30.15 1021 10 16 0.02 0.51
9:53 pm 21:53 Cloudy with Light Rain 50 10 50 10 100 100 Calm 30.17 1022 5 8 0.02 0.51
10:53 pm 22:53 Cloudy with Light Rain 50 10 50 10 100 100 Calm 30.17 1022 4 6 0.09 2.29
11:20 pm 23:20 Cloudy with Light Rain 50 10 50 10 100 100 Calm 30.15 1021 5 8 0.00 0.00
11:53 pm 23:53 Cloudy with Light Rain 51 10.6 51 10.6 100 100 Calm 30.15 1021 6 10 0.03 0.76

Powered by AerisWeather